Weather History for KDAN - September, 2012

Change the Weather History Date:

Sunday, September 2, 2012

  Actual Average Record
Temperature  
Mean Temperature 82 °F 74 °F  
Max Temperature 92 °F 84 °F 99 °F (1953)
Min Temperature 72 °F 65 °F 44 °F (1948)
Degree Days  
Heating Degree Days 0 0  
Month to date heating degree days 0 0  
Since 1 July heating degree days 0 0  
Cooling Degree Days 17 9  
Month to date cooling degree days 35 19  
Year to date cooling degree days 1420 1246  
Growing Degree Days 32 (Base 50)    
Moisture  
Dew Point 70 °F    
Average Humidity 70    
Maximum Humidity 93    
Minimum Humidity 46    
Precipitation  
Precipitation 0.43 in 0.14 in 1.24 in (2000)
Month to date precipitation 0.43 0.27  
Year to date precipitation 20.54 30.56  
Snow  
Snow 0.00 in - - ()
Month to date snowfall 0.0  
Since 1 July snowfall 0.0  
Since 1 September snowfall 0.0  
Snow Depth 0.00 in    
Sea Level Pressure  
Sea Level Pressure 30.00 in    
Wind  
Wind Speed 3 mph (ENE)    
Max Wind Speed 15 mph    
Max Gust Speed 22 mph    
Visibility 9 miles    
Events Rain , Thunderstorm    
T = Trace of Precipitation, MM = Missing Value Source: NWS Daily Summary

Daily Weather History Graph

Daily Weather History Graph

Search for Another Location

Airport or City:

Trip Planner

Search our weather history database for the weather conditions in past years. The results will help you decide how hot, cold, wet, or windy it might be!

Date:

Astronomy

Sep. 02, 2012 Rise Set
Actual Time 6:49 AM EDT 7:43 PM EDT
Civil Twilight 6:23 AM EDT 8:09 PM EDT
Nautical Twilight 5:52 AM EDT 8:40 PM EDT
Astronomical Twilight 5:19 AM EDT 9:12 PM EDT
Moon 8:35 PM EDT (9/2) 8:51 AM EDT (9/2)
Length of Visible Light 13h 46m
Length of Day
12h 53m
Waning Gibbous, 95% of the Moon is Illuminated
Sep 2
Waning Gibbous
Sep 8
Last Quarter
Sep 15
New
Sep 22
First Quarter
Sep 29
Full

Hourly Weather History & Observations

Time (EDT) Temp. Heat Index Dew Point Humidity Pressure Visibility Wind Dir Wind Speed Gust Speed Precip Events Conditions
12:53 AM 75.0 °F - 71.1 °F 87% 30.04 in 10.0 mi Calm Calm - N/A   Clear
1:53 AM 75.0 °F - 72.0 °F 90% 30.03 in 10.0 mi Calm Calm - N/A   Clear
2:53 AM 75.0 °F - 72.0 °F 90% 30.02 in 10.0 mi Calm Calm - N/A   Clear
3:53 AM 73.0 °F - 70.0 °F 90% 30.01 in 8.0 mi Calm Calm - N/A   Clear
4:53 AM 73.0 °F - 71.1 °F 93% 30.01 in 6.0 mi Calm Calm - N/A   Clear
5:53 AM 73.0 °F - 70.0 °F 90% 30.01 in 9.0 mi Calm Calm - N/A   Scattered Clouds
6:53 AM 73.9 °F - 71.1 °F 91% 30.01 in 10.0 mi Calm Calm - N/A   Clear
7:53 AM 75.9 °F - 72.0 °F 87% 30.02 in 10.0 mi Calm Calm - N/A   Clear
8:53 AM 79.0 °F - 73.0 °F 82% 30.02 in 10.0 mi Calm Calm - N/A   Mostly Cloudy
9:53 AM 84.2 °F 89.6 °F 71.6 °F 66% 30.06 in 10.0 mi Calm Calm - N/A   Scattered Clouds
10:53 AM 88.0 °F 94.7 °F 72.0 °F 59% 30.02 in 10.0 mi WSW 4.6 mph - N/A   Scattered Clouds
11:53 AM 90.0 °F 93.6 °F 68.0 °F 48% 30.00 in 10.0 mi Variable 3.5 mph - N/A   Scattered Clouds
12:53 PM 93.0 °F 99.0 °F 70.0 °F 47% 29.98 in 10.0 mi West 5.8 mph - N/A   Mostly Cloudy
1:44 PM 91.4 °F 95.4 °F 68.0 °F 46% 29.99 in 10.0 mi SW 8.1 mph - N/A Thunderstorm Thunderstorm
1:53 PM 91.0 °F 95.2 °F 68.0 °F 47% 29.95 in 10.0 mi SSW 6.9 mph - N/A Thunderstorm Thunderstorm
2:04 PM 93.2 °F 98.8 °F 69.8 °F 46% 29.98 in 10.0 mi Variable 3.5 mph - N/A   Mostly Cloudy
2:18 PM 91.4 °F 96.8 °F 69.8 °F 49% 29.98 in 10.0 mi Variable 4.6 mph - N/A Thunderstorm Mostly Cloudy
2:38 PM 89.6 °F 96.2 °F 71.6 °F 55% 29.98 in 10.0 mi ENE 4.6 mph - N/A   Mostly Cloudy
2:53 PM 87.1 °F 92.0 °F 70.0 °F 57% 29.95 in 10.0 mi ENE 6.9 mph - N/A   Overcast
3:53 PM 87.1 °F 93.6 °F 72.0 °F 61% 29.94 in 10.0 mi NE 9.2 mph - N/A   Partly Cloudy
4:53 PM 84.9 °F 90.1 °F 71.1 °F 63% 29.93 in 10.0 mi East 9.2 mph - N/A   Clear
5:53 PM 84.0 °F 88.4 °F 70.0 °F 63% 29.93 in 10.0 mi NE 8.1 mph - N/A   Clear
6:53 PM 81.0 °F 85.2 °F 72.0 °F 74% 29.94 in 10.0 mi ENE 6.9 mph - N/A Thunderstorm Clear
7:53 PM 73.9 °F - 64.9 °F 73% 29.97 in 10.0 mi East 6.9 mph 19.6 mph N/A Thunderstorm Partly Cloudy
8:14 PM 73.4 °F - 64.4 °F 73% 29.99 in 10.0 mi East 6.9 mph - N/A   Partly Cloudy
8:48 PM 78.8 °F - 66.2 °F 65% 30.03 in 10.0 mi WNW 6.9 mph - N/A Thunderstorm Overcast
8:53 PM 75.9 °F - 66.0 °F 71% 30.01 in 9.0 mi WNW 5.8 mph - 0.01 in Rain , Thunderstorm Light Rain
9:21 PM 71.6 °F - 68.0 °F 88% 30.07 in 2.5 mi South 4.6 mph - 0.09 in Rain , Thunderstorm Heavy Thunderstorms and Rain
9:31 PM 71.6 °F - 69.8 °F 94% 30.07 in 7.0 mi Variable 3.5 mph - 0.11 in Rain , Thunderstorm Light Thunderstorms and Rain
9:44 PM 71.6 °F - 69.8 °F 94% 30.06 in 6.0 mi Calm Calm - 0.15 in Rain , Thunderstorm Thunderstorms and Rain
9:53 PM 72.0 °F - 69.1 °F 91% 30.02 in 7.0 mi Calm Calm - 0.16 in Rain , Thunderstorm Light Thunderstorms and Rain
10:14 PM 71.6 °F - 69.8 °F 94% 30.05 in 8.0 mi ENE 3.5 mph - 0.04 in Rain Light Rain
10:24 PM 71.6 °F - 69.8 °F 94% 30.05 in 7.0 mi NE 3.5 mph - 0.06 in Rain , Thunderstorm Light Rain
10:53 PM 72.0 °F - 69.1 °F 91% 30.01 in 6.0 mi East 4.6 mph - 0.16 in Rain Rain
11:53 PM 72.0 °F - 69.1 °F 91% 29.99 in 10.0 mi Calm Calm - 0.09 in Rain Light Rain